When you browse on this site, cookies collect data to enhance your experience and personalize the content and advertising you see.
Visit our Privacy Policy to learn more. By continuing to use the site, you agree to this use of cookies and data.
  • In Hungary
  • List of Countries
  • For 7 days
  • Water Temperature
  • Satellite Maps
  • Weather Map
  • News
  • Weather Widgets
  • user-avatar
    Login

    Hourly Weather Trotwood

    Today, 13 December, Thursday

    Time Temperature Precipitation Wind Pressure Humidity
    00:00 +1°C° 0 mm 3 mps 738 mmHg 96%
    01:00 +1°C° 0 mm 3 mps 738 mmHg 96%
    02:00 +2°C° 0 mm 2 mps 738 mmHg 96%
    03:00 +2°C° 0 mm 2 mps 739 mmHg 96%
    04:00 +2°C° 0 mm 2 mps 739 mmHg 97%
    05:00 +2°C° 0 mm 2 mps 739 mmHg 97%
    06:00 +2°C° 0 mm 2 mps 740 mmHg 97%
    07:00 +3°C° 0 mm 2 mps 740 mmHg 96%
    08:00 +3°C° 0 mm 2 mps 741 mmHg 95%
    09:00 +4°C° 0 mm 2 mps 741 mmHg 94%
    10:00 +5°C° 0 mm 2 mps 741 mmHg 90%
    11:00 +6°C° 0 mm 2 mps 741 mmHg 85%
    12:00 +8°C° 0 mm 3 mps 741 mmHg 81%
    13:00 +8°C° 0 mm 3 mps 741 mmHg 82%
    14:00 +8°C° 0 mm 3 mps 741 mmHg 83%
    15:00 +7°C° 0 mm 2 mps 740 mmHg 84%
    16:00 +7°C° 0 mm 3 mps 741 mmHg 87%
    17:00 +7°C° 0 mm 3 mps 741 mmHg 89%
    18:00 +5°C° 0 mm 3 mps 741 mmHg 91%
    19:00 +5°C° 0 mm 3 mps 741 mmHg 91%
    20:00 +4°C° 0 mm 3 mps 741 mmHg 91%
    21:00 +4°C° 0 mm 3 mps 741 mmHg 91%
    22:00 +4°C° 0 mm 3 mps 741 mmHg 90%
    23:00 +3°C° 0 mm 3 mps 741 mmHg 89%

    Tomorrow, 14 December, Friday

    Time Temperature Precipitation Wind Pressure Humidity
    00:00 +3°C° 0 mm 3 mps 741 mmHg 87%
    01:00 +3°C° 0 mm 3 mps 741 mmHg 86%
    02:00 +4°C° 0 mm 2 mps 740 mmHg 85%
    03:00 +4°C° 0 mm 2 mps 740 mmHg 84%
    04:00 +4°C° 0 mm 2 mps 740 mmHg 83%
    05:00 +4°C° 0 mm 2 mps 740 mmHg 82%
    06:00 +4°C° 0 mm 2 mps 740 mmHg 82%
    07:00 +4°C° 0.1 mm 2 mps 741 mmHg 82%
    08:00 +6°C° 0.1 mm 1 mps 741 mmHg 82%
    09:00 +6°C° 0.1 mm 1 mps 742 mmHg 82%
    10:00 +8°C° 0 mm 1 mps 741 mmHg 78%
    11:00 +9°C° 0 mm 1 mps 741 mmHg 75%
    12:00 +9°C° 0 mm 2 mps 740 mmHg 71%
    13:00 +9°C° 0 mm 2 mps 740 mmHg 73%
    14:00 +9°C° 0 mm 2 mps 740 mmHg 74%
    15:00 +9°C° 0 mm 3 mps 739 mmHg 75%
    16:00 +8°C° 0 mm 3 mps 739 mmHg 79%
    17:00 +7°C° 0 mm 3 mps 739 mmHg 82%
    18:00 +5°C° 0 mm 3 mps 739 mmHg 86%
    19:00 +5°C° 0 mm 4 mps 739 mmHg 86%
    20:00 +5°C° 0 mm 4 mps 738 mmHg 86%
    21:00 +5°C° 0 mm 5 mps 738 mmHg 86%
    22:00 +5°C° 0.2 mm 5 mps 738 mmHg 86%
    23:00 +5°C° 0.2 mm 5 mps 738 mmHg 87%

    Day after tomorrow, 15 December, Saturday

    Time Temperature Precipitation Wind Pressure Humidity
    00:00 +4°C° 0.2 mm 6 mps 737 mmHg 87%
    01:00 +4°C° 0.4 mm 6 mps 737 mmHg 87%
    02:00 +4°C° 0.4 mm 6 mps 737 mmHg 87%
    03:00 +4°C° 0.4 mm 6 mps 736 mmHg 87%
    04:00 +4°C° 0.2 mm 6 mps 736 mmHg 87%
    05:00 +4°C° 0.2 mm 6 mps 736 mmHg 88%
    06:00 +4°C° 0.2 mm 6 mps 736 mmHg 88%
    07:00 +4°C° 0.4 mm 6 mps 737 mmHg 88%
    08:00 +4°C° 0.4 mm 7 mps 737 mmHg 88%
    09:00 +4°C° 0.4 mm 7 mps 737 mmHg 88%
    10:00 +5°C° 0.3 mm 7 mps 736 mmHg 87%
    11:00 +5°C° 0.3 mm 7 mps 736 mmHg 86%
    12:00 +5°C° 0.3 mm 7 mps 736 mmHg 85%
    13:00 +5°C° 0.2 mm 7 mps 735 mmHg 85%
    14:00 +4°C° 0.2 mm 7 mps 735 mmHg 85%
    15:00 +4°C° 0.2 mm 7 mps 735 mmHg 86%
    16:00 +4°C° 0.1 mm 7 mps 735 mmHg 85%
    17:00 +3°C° 0.1 mm 7 mps 736 mmHg 84%
    18:00 +3°C° 0.1 mm 7 mps 736 mmHg 84%
    19:00 +3°C° 0.2 mm 7 mps 736 mmHg 84%
    20:00 +3°C° 0.2 mm 6 mps 737 mmHg 85%
    21:00 +3°C° 0.2 mm 6 mps 737 mmHg 86%
    22:00 +3°C° 0.1 mm 6 mps 737 mmHg 86%
    23:00 +2°C° 0.1 mm 6 mps 737 mmHg 86%

    16 December, Sunday

    Time Temperature Precipitation Wind Pressure Humidity
    00:00 +2°C° 0.1 mm 5 mps 737 mmHg 86%
    01:00 +2°C° 0 mm 5 mps 738 mmHg 87%
    02:00 +1°C° 0 mm 5 mps 738 mmHg 88%
    03:00 0°C° 0 mm 5 mps 738 mmHg 88%
    04:00 0°C° 0 mm 5 mps 739 mmHg 89%
    05:00 0°C° 0 mm 5 mps 739 mmHg 89%
    06:00 -1°C° 0 mm 4 mps 739 mmHg 89%
    07:00 0°C° 0 mm 4 mps 740 mmHg 86%
    08:00 0°C° 0 mm 4 mps 740 mmHg 83%
    09:00 +2°C° 0 mm 3 mps 740 mmHg 79%
    10:00 +3°C° 0 mm 3 mps 740 mmHg 73%
    11:00 +5°C° 0 mm 3 mps 740 mmHg 68%
    12:00 +7°C° 0 mm 3 mps 740 mmHg 62%
    13:00 +7°C° 0 mm 3 mps 740 mmHg 62%
    14:00 +7°C° 0 mm 3 mps 740 mmHg 62%
    15:00 +7°C° 0 mm 3 mps 740 mmHg 61%
    16:00 +5°C° 0 mm 3 mps 740 mmHg 65%
    17:00 +4°C° 0 mm 3 mps 740 mmHg 70%
    18:00 +2°C° 0 mm 3 mps 740 mmHg 74%
    19:00 +2°C° 0 mm 3 mps 740 mmHg 75%
    20:00 +1°C° 0 mm 4 mps 740 mmHg 76%
    21:00 0°C° 0 mm 4 mps 740 mmHg 77%
    22:00 0°C° 0 mm 4 mps 740 mmHg 79%
    23:00 -1°C° 0 mm 4 mps 740 mmHg 81%

    17 December, Monday

    Time Temperature Precipitation Wind Pressure Humidity
    00:00 -1°C° 0 mm 5 mps 740 mmHg 83%
    01:00 -2°C° 0 mm 5 mps 740 mmHg 83%
    02:00 -2°C° 0 mm 5 mps 740 mmHg 83%
    03:00 -4°C° 0 mm 5 mps 740 mmHg 83%
    04:00 -4°C° 0 mm 5 mps 741 mmHg 80%
    05:00 -4°C° 0 mm 6 mps 741 mmHg 77%
    06:00 -4°C° 0 mm 6 mps 742 mmHg 75%
    07:00 -4°C° 0 mm 6 mps 742 mmHg 71%
    08:00 -3°C° 0 mm 6 mps 743 mmHg 68%
    09:00 -3°C° 0 mm 6 mps 743 mmHg 64%
    10:00 -2°C° 0 mm 6 mps 743 mmHg 62%
    11:00 -2°C° 0 mm 6 mps 743 mmHg 60%
    12:00 -1°C° 0 mm 6 mps 743 mmHg 58%
    13:00 -1°C° 0 mm 6 mps 743 mmHg 59%
    14:00 -2°C° 0 mm 6 mps 743 mmHg 61%
    15:00 -2°C° 0 mm 6 mps 743 mmHg 62%
    16:00 -2°C° 0 mm 5 mps 743 mmHg 66%
    17:00 -2°C° 0 mm 4 mps 744 mmHg 70%
    18:00 -2°C° 0 mm 3 mps 744 mmHg 73%
    19:00 -4°C° 0 mm 3 mps 744 mmHg 75%
    20:00 -4°C° 0 mm 3 mps 744 mmHg 77%
    21:00 -5°C° 0 mm 3 mps 745 mmHg 79%
    22:00 -5°C° 0 mm 3 mps 745 mmHg 79%
    23:00 -5°C° 0 mm 3 mps 745 mmHg 79%

    18 December, Tuesday

    Time Temperature Precipitation Wind Pressure Humidity
    00:00 -5°C° 0 mm 3 mps 745 mmHg 80%
    01:00 -5°C° 0 mm 3 mps 745 mmHg 80%
    02:00 -5°C° 0 mm 3 mps 745 mmHg 79%
    03:00 -4°C° 0 mm 2 mps 745 mmHg 79%
    04:00 -4°C° 0 mm 2 mps 745 mmHg 79%
    05:00 -5°C° 0 mm 2 mps 746 mmHg 79%
    06:00 -3°C° 0 mm 1 mps 746 mmHg 79%
    07:00 -2°C° 0 mm 1 mps 746 mmHg 73%
    08:00 -1°C° 0 mm 1 mps 747 mmHg 67%
    09:00 -1°C° 0 mm 1 mps 747 mmHg 61%
    10:00 +1°C° 0 mm 1 mps 746 mmHg 55%
    11:00 +2°C° 0 mm 1 mps 746 mmHg 50%
    12:00 +3°C° 0 mm 1 mps 746 mmHg 44%
    13:00 +3°C° 0 mm 1 mps 746 mmHg 44%
    14:00 +3°C° 0 mm 1 mps 745 mmHg 44%
    15:00 +3°C° 0 mm 1 mps 745 mmHg 44%
    16:00 +2°C° 0 mm 1 mps 745 mmHg 48%
    17:00 +1°C° 0 mm 1 mps 745 mmHg 53%
    18:00 0°C° 0 mm 1 mps 745 mmHg 57%
    19:00 0°C° 0 mm 1 mps 745 mmHg 58%
    20:00 -2°C° 0 mm 2 mps 745 mmHg 59%
    21:00 -3°C° 0 mm 2 mps 744 mmHg 60%
    22:00 -3°C° 0 mm 2 mps 744 mmHg 60%
    23:00 -3°C° 0 mm 2 mps 744 mmHg 60%
    Show more